TimeEDT,TemperatureF,Dew PointF,Humidity,Sea Level PressureIn,VisibilityMPH,Wind Direction,Wind SpeedMPH,Gust SpeedMPH,PrecipitationIn,Events,Conditions,WindDirDegrees,DateUTC
12:18 AM,48.2,46.4,93,29.93,1.8,SSE,3.5,-,N/A,,Overcast,160,2012-10-15 04:18:00
12:31 AM,48.2,48.2,100,29.92,0.5,Calm,Calm,-,N/A,Fog,Fog,0,2012-10-15 04:31:00
12:46 AM,48.2,48.2,100,29.92,0.2,Calm,Calm,-,N/A,Fog,Fog,0,2012-10-15 04:46:00
12:53 AM,48.0,48.0,100,29.92,0.2,Calm,Calm,-,N/A,Fog,Fog,0,2012-10-15 04:53:00
1:04 AM,48.2,48.2,100,29.91,0.2,Calm,Calm,-,N/A,Fog,Fog,0,2012-10-15 05:04:00
1:53 AM,48.0,48.0,100,29.90,0.2,Calm,Calm,-,N/A,Fog,Fog,0,2012-10-15 05:53:00
2:53 AM,48.9,48.0,97,29.86,0.2,Calm,Calm,-,N/A,Fog,Fog,0,2012-10-15 06:53:00
3:07 AM,48.2,48.2,100,29.85,0.2,Calm,Calm,-,N/A,Fog,Fog,0,2012-10-15 07:07:00
3:53 AM,48.9,48.9,100,29.84,0.2,Calm,Calm,-,N/A,Fog,Fog,0,2012-10-15 07:53:00
4:53 AM,50.0,48.9,96,29.83,0.2,Calm,Calm,-,N/A,Fog,Fog,0,2012-10-15 08:53:00
5:53 AM,51.1,51.1,100,29.81,0.2,SSW,6.9,-,N/A,Fog,Fog,200,2012-10-15 09:53:00
6:01 AM,51.8,51.8,100,29.80,0.5,SSW,5.8,-,N/A,Fog,Fog,200,2012-10-15 10:01:00
6:15 AM,53.6,51.8,94,29.80,1.8,Variable,6.9,-,N/A,,Overcast,0,2012-10-15 10:15:00
6:22 AM,53.6,53.6,100,29.80,2.5,Variable,6.9,-,N/A,,Overcast,0,2012-10-15 10:22:00
6:35 AM,53.6,53.6,100,29.79,4.0,Variable,6.9,-,N/A,,Overcast,0,2012-10-15 10:35:00
6:53 AM,54.0,54.0,100,29.80,5.0,SSW,6.9,-,N/A,,Overcast,200,2012-10-15 10:53:00
7:53 AM,55.9,55.0,97,29.78,7.0,Variable,5.8,-,N/A,,Overcast,0,2012-10-15 11:53:00
8:34 AM,57.2,55.4,94,29.77,10.0,South,8.1,-,N/A,,Overcast,190,2012-10-15 12:34:00
8:53 AM,57.0,55.9,96,29.78,10.0,South,8.1,-,N/A,,Overcast,180,2012-10-15 12:53:00
9:53 AM,60.1,57.0,90,29.77,10.0,South,9.2,-,N/A,,Overcast,190,2012-10-15 13:53:00
10:00 AM,60.8,57.2,88,29.77,10.0,SSW,8.1,20.7,N/A,,Overcast,200,2012-10-15 14:00:00
10:53 AM,61.0,57.9,90,29.75,10.0,SSW,9.2,17.3,N/A,,Overcast,200,2012-10-15 14:53:00
11:53 AM,63.0,57.9,84,29.73,10.0,SSW,9.2,19.6,N/A,,Overcast,200,2012-10-15 15:53:00
12:53 PM,64.0,59.0,84,29.71,10.0,South,11.5,17.3,N/A,,Overcast,180,2012-10-15 16:53:00
1:16 PM,64.4,59.0,83,29.70,10.0,SSW,9.2,19.6,N/A,,Overcast,200,2012-10-15 17:16:00
1:53 PM,64.0,57.9,80,29.69,10.0,South,10.4,19.6,N/A,,Overcast,180,2012-10-15 17:53:00
2:53 PM,64.0,57.9,80,29.68,10.0,South,9.2,-,N/A,,Mostly Cloudy,180,2012-10-15 18:53:00
3:53 PM,64.0,57.9,80,29.67,10.0,South,5.8,-,N/A,,Overcast,170,2012-10-15 19:53:00
4:53 PM,62.1,57.9,86,29.66,10.0,South,5.8,-,0.00,,Mostly Cloudy,170,2012-10-15 20:53:00
5:53 PM,61.0,57.0,87,29.63,10.0,SSE,6.9,-,N/A,,Scattered Clouds,160,2012-10-15 21:53:00
6:53 PM,60.1,57.0,90,29.63,10.0,South,8.1,-,N/A,,Clear,170,2012-10-15 22:53:00
7:53 PM,60.1,57.0,90,29.62,10.0,South,9.2,-,N/A,,Mostly Cloudy,170,2012-10-15 23:53:00
8:53 PM,61.0,57.0,87,29.60,10.0,South,8.1,-,N/A,,Overcast,170,2012-10-16 00:53:00
9:53 PM,60.1,57.9,93,29.62,10.0,South,8.1,-,0.04,Rain,Light Rain,180,2012-10-16 01:53:00
10:36 PM,60.8,57.2,88,29.60,7.0,Variable,5.8,-,0.06,Rain,Light Rain,0,2012-10-16 02:36:00
10:53 PM,59.0,57.9,96,29.59,6.0,Variable,5.8,-,0.07,Rain,Light Rain,0,2012-10-16 02:53:00
10:58 PM,59.0,57.2,94,29.59,7.0,South,5.8,-,0.00,Rain,Light Rain,190,2012-10-16 02:58:00
11:05 PM,59.0,57.2,94,29.58,8.0,South,5.8,-,0.00,Rain,Light Rain,180,2012-10-16 03:05:00
11:22 PM,59.0,57.2,94,29.58,8.0,South,6.9,-,0.01,Rain,Light Rain,190,2012-10-16 03:22:00
11:33 PM,59.0,57.2,94,29.58,7.0,SSW,8.1,-,0.01,Rain,Light Rain,200,2012-10-16 03:33:00
11:53 PM,59.0,57.9,96,29.59,7.0,SSW,5.8,-,0.01,,Overcast,200,2012-10-16 03:53:00